DW2537 Weather Reports


time (UTC)temp
C
wind
direction
speed
KPH
gust
KPH
rain 1hr
cm
rain 24hr
cm
rain mn
cm
humidity
%
barometer
mb
20260504081537 7 0 0.0 3.2 0.00 0.00 0.00 75 1015.3
20260504081018 7 0 0.0 3.2 0.00 0.00 0.00 72 1015.3
20260504080517 7 0 0.0 3.2 0.00 0.00 0.00 74 1015.3
20260504050518 6 0 0.0 3.2 0.00 0.00 0.00 74 1015.6
20260504045518 6 0 0.0 3.2 0.00 0.00 0.00 73 1015.6
20260504045018 6 0 0.0 0.0 0.00 0.00 0.00 73 1015.6
20260504044540 6 0 0.0 0.0 0.00 0.00 0.00 72 1015.6
20260504044018 6 0 0.0 3.2 0.00 0.00 0.00 72 1015.6
20260504043519 6 0 0.0 3.2 0.00 0.00 0.00 72 1015.7
20260504043035 6 0 0.0 3.2 0.00 0.00 0.00 72 1015.6
20260504042517 6 0 0.0 3.2 0.00 0.00 0.00 71 1015.6
20260504042019 6 196 0.0 3.2 0.00 0.00 0.00 71 1015.6
20260504041535 6 0 0.0 3.2 0.00 0.00 0.00 70 1015.7
20260504041017 6 0 0.0 3.2 0.00 0.00 0.00 70 1015.7
20260504040518 6 0 0.0 3.2 0.00 0.00 0.00 69 1015.7
20260504040041 6 0 0.0 3.2 0.00 0.00 0.00 69 1015.6
20260504035521 6 0 0.0 3.2 0.00 0.00 0.00 69 1015.7
20260504035020 7 0 0.0 3.2 0.00 0.00 0.00 69 1015.6
20260504034540 7 0 0.0 3.2 0.00 0.00 0.00 68 1015.5
20260504034018 7 196 0.0 3.2 0.00 0.00 0.00 67 1015.5
20260504033520 7 0 0.0 3.2 0.00 0.00 0.00 66 1015.5
20260504033040 7 0 0.0 3.2 0.00 0.00 0.00 68 1015.4
20260504032518 7 196 0.0 3.2 0.00 0.00 0.00 68 1015.3
20260504032018 7 0 0.0 3.2 0.00 0.00 0.00 69 1015.2
20260504031543 7 0 0.0 3.2 0.00 0.00 0.00 68 1015.2
20260504031017 7 196 0.0 3.2 0.00 0.00 0.00 67 1015.1
20260504030518 7 196 0.0 3.2 0.00 0.00 0.00 67 1015.0
20260504030040 7 196 0.0 3.2 0.00 0.00 0.00 67 1014.9
20260504025518 7 0 0.0 3.2 0.00 0.00 0.00 68 1014.9
20260504025020 7 0 0.0 3.2 0.00 0.00 0.00 68 1014.9
20260504024534 7 196 0.0 3.2 0.00 0.00 0.00 66 1015.0
20260504024017 7 0 0.0 0.0 0.00 0.00 0.00 66 1014.9
20260504023518 7 0 0.0 1.6 0.00 0.00 0.00 66 1014.9
20260504023040 7 0 0.0 1.6 0.00 0.00 0.00 66 1015.0
20260504022517 7 0 0.0 0.0 0.00 0.00 0.00 63 1014.9
20260504022019 7 0 0.0 3.2 0.00 0.00 0.00 65 1014.9
20260504021536 7 0 0.0 3.2 0.00 0.00 0.00 66 1014.9
20260504021017 8 196 0.0 3.2 0.00 0.00 0.00 65 1014.8
20260504020517 8 0 0.0 3.2 0.00 0.00 0.00 65 1014.9
20260504020034 8 0 0.0 3.2 0.00 0.00 0.00 65 1014.8
20260504015518 8 0 0.0 3.2 0.00 0.00 0.00 64 1014.9
20260504015018 8 0 0.0 0.0 0.00 0.00 0.00 61 1014.9
20260504014534 8 0 0.0 0.0 0.00 0.00 0.00 63 1014.7
20260504014016 8 0 0.0 3.2 0.00 0.00 0.00 62 1014.8
20260504013516 8 0 0.0 3.2 0.00 0.00 0.00 62 1014.8
20260504013041 8 0 0.0 0.0 0.00 0.00 0.00 60 1014.7
20260504012519 9 0 0.0 0.0 0.00 0.00 0.00 60 1014.7
20260504012019 9 0 0.0 0.0 0.00 0.00 0.00 59 1014.7
20260504011539 9 0 0.0 0.0 0.00 0.00 0.00 59 1014.7
20260504011017 10 0 0.0 3.2 0.00 0.00 0.00 57 1014.6
20260504010516 10 0 0.0 3.2 0.00 0.00 0.00 54 1014.5
20260504010036 10 196 0.0 3.2 0.00 0.00 0.00 52 1014.6
20260504005517 10 0 0.0 0.0 0.00 0.00 0.00 55 1014.5
20260504005018 10 0 0.0 0.0 0.00 0.00 0.00 53 1014.5
20260504004536 11 0 0.0 0.0 0.00 0.00 0.00 52 1014.5
20260504004017 11 0 0.0 0.0 0.00 0.00 0.00 52 1014.5
20260504003516 11 0 0.0 0.0 0.00 0.00 0.00 47 1014.4
20260504003046 11 0 0.0 0.0 0.00 0.00 0.00 48 1014.3
20260504002516 12 0 0.0 0.0 0.00 0.00 0.00 47 1014.3
20260504002017 12 0 0.0 0.0 0.00 0.00 0.00 43 1014.3
20260504001540 12 0 0.0 0.0 0.00 0.00 0.00 44 1014.2
20260504001021 12 0 0.0 0.0 0.00 0.00 0.00 44 1014.2
20260504000522 13 0 0.0 0.0 0.00 0.00 0.00 43 1014.1
20260504000104 13 0 0.0 3.2 0.00 0.00 0.00 42 1014.1
20260503235517 13 0 0.0 3.2 0.00 0.00 0.00 42 1014.1
20260503235018 13 196 0.0 3.2 0.00 0.00 0.00 40 1014.1
20260503234540 13 0 0.0 3.2 0.00 0.00 0.00 40 1014.0
20260503234018 14 196 0.0 3.2 0.00 0.00 0.00 36 1014.0
20260503233516 14 194 0.0 3.2 0.00 0.00 0.00 37 1013.9
20260503233041 14 220 0.0 3.2 0.00 0.00 0.00 34 1013.9
20260503232519 15 215 0.0 3.2 0.00 0.00 0.00 37 1013.8
20260503232017 15 296 1.6 8.0 0.00 0.00 0.00 36 1013.8
20260503231541 15 0 1.6 8.0 0.00 0.00 0.00 35 1013.7
20260503231020 15 217 0.0 8.0 0.00 0.00 0.00 34 1013.7
20260503230521 15 13 3.2 8.0 0.00 0.00 0.00 32 1013.7
20260503230041 15 327 1.6 8.0 0.00 0.00 0.00 33 1013.7
20260503225520 15 117 0.0 6.4 0.00 0.00 0.00 35 1013.7
20260503225019 15 188 0.0 6.4 0.00 0.00 0.00 32 1013.8
20260503224539 15 159 1.6 6.4 0.00 0.00 0.00 35 1013.8
20260503224020 15 313 1.6 8.0 0.00 0.00 0.00 36 1013.9
20260503223517 15 49 1.6 8.0 0.00 0.00 0.00 32 1013.9
20260503223042 15 347 3.2 8.0 0.00 0.00 0.00 35 1013.8
20260503222518 15 196 1.6 8.0 0.00 0.00 0.00 32 1013.8
20260503222019 16 157 1.6 19.3 0.00 0.00 0.00 32 1013.8
20260503221549 16 0 1.6 19.3 0.00 0.00 0.00 36 1013.8
20260503221017 16 229 1.6 6.4 0.00 0.00 0.00 31 1013.8
20260503220521 16 59 1.6 6.4 0.00 0.00 0.00 33 1013.8
20260503220040 16 185 3.2 14.5 0.00 0.00 0.00 34 1013.9
20260503215517 16 51 1.6 14.5 0.00 0.00 0.00 33 1013.9
20260503215019 16 80 3.2 11.3 0.00 0.00 0.00 30 1013.8
20260503214541 16 76 1.6 11.3 0.00 0.00 0.00 34 1013.9
20260503214023 16 227 3.2 12.9 0.00 0.00 0.00 32 1013.8
20260503213521 16 230 3.2 12.9 0.00 0.00 0.00 34 1013.9
20260503213034 16 213 1.6 8.0 0.00 0.00 0.00 28 1013.8
20260503212518 16 19 1.6 9.7 0.00 0.00 0.00 28 1013.7
20260503212017 16 63 3.2 16.1 0.00 0.00 0.00 28 1013.7
20260503211540 16 90 4.8 16.1 0.00 0.00 0.00 29 1013.8
20260503211019 16 317 3.2 11.3 0.00 0.00 0.00 29 1013.8
20260503210517 16 22 1.6 8.0 0.00 0.00 0.00 34 1013.7
20260503210041 16 10 3.2 14.5 0.00 0.00 0.00 33 1013.9
20260503205519 16 350 3.2 14.5 0.00 0.00 0.00 29 1013.8
20260503205017 17 327 6.4 14.5 0.00 0.00 0.00 32 1013.8
20260503204540 17 36 1.6 8.0 0.00 0.00 0.00 34 1013.7
20260503204019 17 350 1.6 12.9 0.00 0.00 0.00 33 1013.7
20260503203518 17 65 1.6 12.9 0.00 0.00 0.00 30 1013.8
20260503203057 16 311 1.6 9.7 0.00 0.00 0.00 35 1013.9
20260503202519 16 284 1.6 11.3 0.00 0.00 0.00 31 1014.0
20260503202017 16 191 3.2 11.3 0.00 0.00 0.00 34 1014.1
20260503201541 16 13 3.2 17.7 0.00 0.00 0.00 35 1014.3
20260503201018 16 202 4.8 17.7 0.00 0.00 0.00 34 1014.3
20260503200517 16 96 3.2 11.3 0.00 0.00 0.00 34 1014.3
20260503200040 16 256 3.2 11.3 0.00 0.00 0.00 32 1014.5
20260503195517 16 277 3.2 9.7 0.00 0.00 0.00 33 1014.5
20260503195017 16 151 1.6 6.4 0.00 0.00 0.00 37 1014.6
20260503194542 16 342 1.6 8.0 0.00 0.00 0.00 34 1014.6
20260503194019 16 293 3.2 17.7 0.00 0.00 0.00 32 1014.8
20260503193518 16 316 4.8 17.7 0.00 0.00 0.00 30 1014.7
20260503193038 16 205 4.8 20.9 0.00 0.00 0.00 36 1015.0
20260503192517 15 190 4.8 20.9 0.00 0.00 0.00 31 1014.9
20260503192017 16 352 6.4 17.7 0.00 0.00 0.00 31 1015.0
20260503191537 16 342 4.8 17.7 0.00 0.00 0.00 35 1015.1
20260503191019 16 140 3.2 9.7 0.00 0.00 0.00 36 1015.1
20260503190524 15 180 3.2 9.7 0.00 0.00 0.00 34 1015.1
20260503190044 15 107 3.2 17.7 0.00 0.00 0.00 36 1015.1
20260503185518 15 286 3.2 17.7 0.00 0.00 0.00 35 1015.3
20260503185018 15 254 4.8 17.7 0.00 0.00 0.00 37 1015.2
20260503184534 15 200 1.6 16.1 0.00 0.00 0.00 39 1015.3
20260503184020 15 343 3.2 17.7 0.00 0.00 0.00 34 1015.3
20260503183519 15 144 3.2 17.7 0.00 0.00 0.00 34 1015.4
20260503183037 15 293 3.2 17.7 0.00 0.00 0.00 34 1015.5
20260503182517 15 199 1.6 9.7 0.00 0.00 0.00 39 1015.5
20260503182017 14 312 1.6 20.9 0.00 0.00 0.00 42 1015.5
20260503181535 14 54 1.6 20.9 0.00 0.00 0.00 38 1015.6
20260503181019 14 325 3.2 16.1 0.00 0.00 0.00 42 1015.5
20260503180519 14 177 4.8 20.9 0.00 0.00 0.00 38 1015.6
20260503180041 14 203 6.4 20.9 0.00 0.00 0.00 37 1015.6
20260503175018 15 23 3.2 17.7 0.00 0.00 0.00 36 1015.7
20260503174540 15 360 6.4 17.7 0.00 0.00 0.00 33 1015.7
20260503174022 15 184 3.2 14.5 0.00 0.00 0.00 35 1015.7
20260503173520 15 309 1.6 11.3 0.00 0.00 0.00 37 1015.8
20260503173051 15 54 3.2 12.9 0.00 0.00 0.00 34 1015.6
20260503172516 14 360 3.2 14.5 0.00 0.00 0.00 36 1015.8
20260503172019 14 342 3.2 14.5 0.00 0.00 0.00 32 1015.8
20260503171542 14 74 3.2 30.6 0.00 0.00 0.00 37 1015.7
20260503171023 14 223 6.4 30.6 0.00 0.00 0.00 38 1015.9
20260503170519 14 5 1.6 14.5 0.00 0.00 0.00 39 1015.9
20260503150515 12 46 1.6 9.7 0.00 0.00 0.00 41 1016.6
20260503131014 9 174 0.0 6.4 0.00 0.00 0.00 49 1016.8
20260503130520 8 330 3.2 12.9 0.00 0.00 0.00 51 1016.8
20260503110517 4 41 0.0 3.2 0.00 0.00 0.00 73 1015.9